Location: Camp at the Woods
(43.2055°N, 93.0905°W)
Time: 02:00:29
(UTC+00:00)

Cosmos 2227 Rocket - Pass Details

Date: 23 May 2025
Orbit: 837 x 844 km, 71.0° (Epoch: 12 June)

Event Time Altitude Azimuth Distance (km) Brightness Sun altitude
Exits shadow 08:34:39 31° 226° (SW) 1,446 2.8 -17.9°
Maximum altitude 08:37:22 64° 297° (WNW) 928 2.3 -17.6°
Drops below altitude 10° 08:42:59 10° 19° (NNE) 2,464 5.8 -17.0°
Sets 08:45:28 0° 23° (NNE) 3,403 6.9 -16.7°
